Fernwood, MS

6:34 AM CST on December 08, 2016 (GMT -0600)
McComb-Pike County-Lewis

Weather History for KMCB - September, 2013

Change the Weather History Date:

Tuesday, September 17, 2013

  Actual Average Record
Temperature  
Mean Temperature 82 °F -  
Max Temperature 93 °F 86 °F 94 °F (1953)
Min Temperature 72 °F 65 °F 51 °F (1961)
Cooling Degree Days 18    
Growing Degree Days 32 (Base 50)    
Moisture  
Dew Point 65 °F    
Average Humidity 62    
Maximum Humidity 91    
Minimum Humidity 31    
Precipitation  
Precipitation 0.00 in - - ()
Sea Level Pressure  
Sea Level Pressure 30.04 in    
Wind  
Wind Speed 2 mph (ENE)    
Max Wind Speed 9 mph    
Max Gust Speed -    
Visibility 9 miles    
Events      
Averages and records for this station are not official NWS values.
T = Trace of Precipitation, MM = Missing Value Source: NWS Daily Summary

Daily Weather History Graph

Daily Weather History Graph

Search for Another Location

Airport or City:

Trip Planner

Search our weather history database for the weather conditions in past years. The results will help you decide how hot, cold, wet, or windy it might be!

Date:

Astronomy

Sep. 17, 2013 Rise Set
Actual Time 6:47 AM CDT 7:04 PM CDT
Civil Twilight 6:23 AM CDT 7:28 PM CDT
Nautical Twilight 5:54 AM CDT 7:57 PM CDT
Astronomical Twilight 5:26 AM CDT 8:25 PM CDT
Moon 5:48 PM CDT (9/17) 4:47 AM CDT (9/17)
Length of Visible Light 13h 05m
Length of Day
12h 17m
Waxing Gibbous, 96% of the Moon is Illuminated
Sep 17
Waxing Gibbous
Sep 19
Full
Sep 26
Last Quarter
Oct 4
New
Oct 11
First Quarter

Hourly Weather History & Observations

Time (CDT) Temp. Heat Index Dew Point Humidity Pressure Visibility Wind Dir Wind Speed Gust Speed Precip Events Conditions
12:53 AM 73.0 °F - 69.1 °F 87% 30.05 in 8.0 mi Calm Calm - N/A   Clear
1:53 AM 72.0 °F - 68.0 °F 87% 30.05 in 7.0 mi Calm Calm - N/A   Clear
2:53 AM 72.0 °F - 69.1 °F 91% 30.04 in 7.0 mi Calm Calm - N/A   Clear
3:53 AM 72.0 °F - 69.1 °F 91% 30.04 in 6.0 mi Calm Calm - N/A   Clear
4:53 AM 72.0 °F - 69.1 °F 91% 30.04 in 8.0 mi Calm Calm - N/A   Clear
5:53 AM 73.0 °F - 69.1 °F 87% 30.05 in 8.0 mi NNE 3.5 mph - N/A   Clear
6:53 AM 72.0 °F - 66.9 °F 84% 30.06 in 7.0 mi NNE 5.8 mph - N/A   Clear
7:53 AM 73.9 °F - 66.9 °F 79% 30.07 in 7.0 mi NE 4.6 mph - N/A   Clear
8:53 AM 79.0 °F - 69.1 °F 72% 30.09 in 8.0 mi East 4.6 mph - N/A   Clear
9:53 AM 82.9 °F 84.4 °F 64.0 °F 53% 30.10 in 10.0 mi East 5.8 mph - N/A   Clear
10:53 AM 87.1 °F 87.8 °F 63.0 °F 44% 30.10 in 10.0 mi East 6.9 mph - N/A   Clear
11:53 AM 91.0 °F 92.6 °F 64.0 °F 41% 30.08 in 10.0 mi Variable 5.8 mph - N/A   Clear
12:53 PM 91.0 °F 90.9 °F 61.0 °F 36% 30.06 in 10.0 mi Variable 6.9 mph - N/A   Clear
1:53 PM 91.9 °F 91.5 °F 60.1 °F 34% 30.04 in 10.0 mi Variable 4.6 mph - N/A   Clear
2:53 PM 93.0 °F 92.0 °F 57.9 °F 31% 30.01 in 10.0 mi ENE 9.2 mph - N/A   Clear
3:53 PM 93.0 °F 92.3 °F 59.0 °F 32% 29.99 in 10.0 mi Variable 4.6 mph - N/A   Clear
4:53 PM 91.9 °F 90.8 °F 57.9 °F 32% 29.98 in 10.0 mi Variable 6.9 mph - N/A   Clear
5:53 PM 90.0 °F 90.0 °F 61.0 °F 38% 29.98 in 10.0 mi Variable 4.6 mph - N/A   Clear
6:53 PM 86.0 °F 86.3 °F 62.1 °F 44% 29.98 in 10.0 mi Calm Calm - N/A   Clear
7:53 PM 80.1 °F 81.7 °F 64.0 °F 58% 29.99 in 10.0 mi Calm Calm - N/A   Clear
8:53 PM 79.0 °F - 64.0 °F 60% 30.00 in 9.0 mi Calm Calm - N/A   Clear
9:53 PM 75.9 °F - 66.0 °F 71% 30.03 in 10.0 mi South 5.8 mph - N/A   Clear
10:53 PM 75.0 °F - 66.0 °F 73% 30.03 in 10.0 mi Calm Calm - N/A   Clear
11:53 PM 73.9 °F - 66.9 °F 79% 30.02 in 10.0 mi Calm Calm - N/A   Clear